This demonstration page uses our WeatherBlox Daily Observations layout. Learn more.

Left ArrowRight Arrow

41.12389, -100.76542

Hourly Observations for December 19, 2017

Temp ( °F °C ) Dew Point ( °F °C ) Humidity (%) Winds ( mph kmh ) Pressure ( in mb ) Visibility ( mi km ) Precip ( " mm )
12:53 am 00:53 Clear 27 -2.8 23 -5 85 85 NW 6 9 29.97 1015 10 16 0.00 0.00
1:53 am 01:53 Clear 26 -3.3 22 -5.6 84 84 NW 8 13 29.98 1015 10 16 0.00 0.00
2:53 am 02:53 Clear 25 -3.9 21 -6.1 85 85 NW 7 11 30.00 1016 10 16 0.00 0.00
3:53 am 03:53 Clear 23 -5 20 -6.7 88 88 Calm 30.02 1017 10 16 0.00 0.00
4:53 am 04:53 Clear 24 -4.4 20 -6.7 84 84 NW 5 7 30.05 1018 10 16 0.00 0.00
5:53 am 05:53 Clear 21 -6.1 19 -7.2 92 92 W 3 6 30.10 1019 10 16 0.00 0.00
6:53 am 06:53 Clear 28 -2.2 25 -3.9 88 88 NW 9 15 30.12 1020 10 16 0.00 0.00
7:53 am 07:53 Clear 31 -0.6 27 -2.8 85 85 Calm 30.16 1021 10 16 0.00 0.00
8:53 am 08:53 Partly Cloudy 33 0.6 29 -1.7 85 85 N 3 6 30.19 1022 10 16 0.00 0.00
9:53 am 09:53 Sunny 36 2.2 29 -1.7 76 76 NNE 8 13 30.22 1023 10 16 0.00 0.00
10:53 am 10:53 Sunny 40 4.4 27 -2.8 60 60 NE 14 22 30.22 1023 10 16 0.00 0.00
11:53 am 11:53 Sunny 43 6.1 25 -3.9 49 49 NNE 8 13 30.21 1023 10 16 0.00 0.00
12:53 pm 12:53 Sunny 44 6.7 23 -5 43 43 undefined N/A 30.17 1022 10 16 0.00 0.00
1:53 pm 13:53 Sunny 45 7.2 21 -6.1 39 39 E 7 11 30.14 1021 10 16 0.00 0.00
2:53 pm 14:53 Sunny 46 7.8 20 -6.7 35 35 VRB 6 9 30.13 1020 10 16 0.00 0.00
3:53 pm 15:53 Sunny 45 7.2 19 -7.2 35 35 E 8 13 30.13 1020 10 16 0.00 0.00
4:53 pm 16:53 Sunny 40 4.4 20 -6.7 45 45 E 7 11 30.12 1020 10 16 0.00 0.00
5:53 pm 17:53 Clear 31 -0.6 18 -7.8 59 59 E 6 9 30.14 1021 10 16 0.00 0.00
6:53 pm 18:53 Clear 27 -2.8 17 -8.3 66 66 E 7 11 30.15 1021 10 16 0.00 0.00
7:53 pm 19:53 Clear 24 -4.4 17 -8.3 75 75 E 6 9 30.16 1021 10 16 0.00 0.00
8:53 pm 20:53 Clear 23 -5 16 -8.9 74 74 ESE 3 6 30.16 1021 10 16 0.00 0.00
9:53 pm 21:53 Clear 22 -5.6 15 -9.4 75 75 ESE 5 7 30.15 1021 10 16 0.00 0.00
10:53 pm 22:53 Clear 20 -6.7 14 -10 78 78 ESE 5 7 30.12 1020 10 16 0.00 0.00
11:53 pm 23:53 Clear 20 -6.7 15 -9.4 81 81 ESE 7 11 30.10 1019 10 16 0.00 0.00

Powered by AerisWeather